This demonstration page uses our WeatherBlox Daily Observations layout. Learn more.

Left ArrowRight Arrow

36.17497, -115.13722

Hourly Observations for June 9, 2019

Temp ( °F °C ) Dew Point ( °F °C ) Humidity (%) Winds ( mph kmh ) Pressure ( in mb ) Visibility ( mi km ) Precip ( " mm )
12:53 am 00:53 Clear 80 26.7 19 -7.2 10 10 VRB 6 9 30.04 1017 10 16 0.00 0.00
1:53 am 01:53 Clear 78 25.6 19 -7.2 11 11 ENE 12 19 30.06 1018 10 16 0.00 0.00
2:53 am 02:53 Clear 74 23.3 26 -3.3 17 17 ENE 5 7 30.09 1019 10 16 0.00 0.00
3:53 am 03:53 Clear 73 22.8 24 -4.4 16 16 NE 8 13 30.11 1020 10 16 0.00 0.00
4:53 am 04:53 Clear 72 22.2 24 -4.4 17 17 NNE 10 17 30.14 1021 10 16 0.00 0.00
5:53 am 05:53 Sunny 70 21.1 23 -5 17 17 N 8 13 30.17 1022 10 16 0.00 0.00
6:53 am 06:53 Sunny 72 22.2 22 -5.6 15 15 N 12 19 30.19 1023 10 16 0.00 0.00
7:53 am 07:53 Sunny 73 22.8 22 -5.6 15 15 NNW 15 24 30.22 1023 10 16 0.00 0.00
8:53 am 08:53 Sunny 77 25 22 -5.6 13 13 N 13 20 30.22 1023 10 16 0.00 0.00
9:53 am 09:53 Sunny 78 25.6 22 -5.6 12 12 NNW 7 11 30.21 1023 10 16 0.00 0.00
10:53 am 10:53 Sunny 81 27.2 22 -5.6 11 11 NNE 7 11 30.21 1023 10 16 0.00 0.00
11:53 am 11:53 Sunny 83 28.3 22 -5.6 10 10 NW 12 19 30.18 1022 10 16 0.00 0.00
12:53 pm 12:53 Sunny 85 29.4 21 -6.1 9 9 N 12 19 30.16 1021 10 16 0.00 0.00
1:53 pm 13:53 Sunny 87 30.6 21 -6.1 9 9 VRB 3 6 30.14 1021 10 16 0.00 0.00
2:53 pm 14:53 Sunny 89 31.7 19 -7.2 7 7 NE 13 20 30.11 1020 10 16 0.00 0.00
3:53 pm 15:53 Sunny 89 31.7 17 -8.3 7 7 E 8 13 30.09 1019 10 16 0.00 0.00
4:53 pm 16:53 Sunny 89 31.7 16 -8.9 7 7 E 14 22 30.07 1018 10 16 0.00 0.00
5:53 pm 17:53 Sunny 89 31.7 16 -8.9 7 7 E 9 15 30.05 1018 10 16 0.00 0.00
6:53 pm 18:53 Sunny 89 31.7 14 -10 6 6 E 10 17 30.05 1018 10 16 0.00 0.00
7:53 pm 19:53 Sunny 87 30.6 14 -10 6 6 ENE 8 13 30.05 1018 10 16 0.00 0.00
8:53 pm 20:53 Clear 85 29.4 15 -9.4 7 7 NNE 6 9 30.05 1018 10 16 0.00 0.00
9:53 pm 21:53 Clear 82 27.8 19 -7.2 9 9 NNW 5 7 30.07 1018 10 16 0.00 0.00
10:53 pm 22:53 Clear 80 26.7 24 -4.4 13 13 NW 8 13 30.06 1018 10 16 0.00 0.00
11:53 pm 23:53 Clear 79 26.1 22 -5.6 12 12 N 5 7 30.06 1018 10 16 0.00 0.00

Powered by AerisWeather